Regional Weather Roundup
Issued by NWS Wakefield, VA

Home | Current Version | Previous Version | Graphics & Text | Print | Product List | Glossary On
Versions: 1 2 3 4 5 6 7 8 9 10 11 12 13 14 15 16 17 18 19 20 21 22 23 24 25 26 27
000
ASUS41 KAKQ 220615
RWRAKQ

REGIONAL WEATHER ROUNDUP
NATIONAL WEATHER SERVICE WAKEFIELD VA
200 AM EDT SAT APR 22 2017

Note: "fair" indicates few or no clouds below 12,000 feet with no
significant weather and/or obstructions to visibility. * = Denotes
station may not report precipitation (e.g., rain,snow,etc.),
thunder or fog.

VAZ042-051-052>054-056-220700-
NORTHERN VIRGINIA

CITY           SKY/WX    TMP DP  RH WIND       PRES   REMARKS
WASH NATIONAL  CLOUDY    64  61  90 NE7       29.86F
DULLES         MOCLDY    64  60  87 NE6       29.87F
FORT BELVOIR   MOCLDY    64  60  86 N3        29.86F
QUANTICO       CLOUDY    67  66  97 NE9       29.86F
FREDERICKSBRG* CLOUDY    65  65 100 CALM      29.84F
STAFFORD*      CLOUDY    64  64 100 N5        29.89F
WARRENTON      CLOUDY    68  62  80 N7        29.86S
CULPEPER*      CLOUDY    68  61  78 N5        29.87F
MANASSAS*        N/A     66  63  90 NE6       29.86F
LEESBURG*      CLOUDY    66  64  94 CALM      29.88F
WINCHESTER     CLOUDY    63  43  48 N3        29.89F
FRONT ROYAL*   CLOUDY    64  46  52 CALM      29.88S
LURAY*         CLOUDY    66  48  52 N7        29.88F
$$

VAZ048-049-060>072-079>083-220700-
CENTRAL AND SOUTH CENTRAL VIRGINIA

CITY           SKY/WX    TMP DP  RH WIND       PRES   REMARKS
RICHMOND       CLOUDY    68  66  93 S7        29.84R
CHESTERFIELD*  MOCLDY   N/A N/A N/A W7        29.85R
PETERSBURG*    CLOUDY    71  60  68 SW14G21   29.86F
HANOVER        CLOUDY    66  63  90 W5        29.85F FOG
TAPPAHANNOCK*  CLOUDY    66  66 100 CALM      29.84S
QUINTON*       CLOUDY    67  67 100 CALM      29.83S
CHARLOTTSVILLE LGT RAIN  68  61  78 CALM      29.86F
GORDONSVILLE*  CLOUDY    68  61  79 N3        29.85S
ORANGE*        LGT RAIN  66  61  82 N3        29.86S
LOUISA*        CLOUDY    68  64  88 CALM      29.84F
BUMPASS*       MOCLDY    63  63 100 W9        29.84S
FARMVILLE*     CLOUDY    69  64  85 SW5       29.85F
CREWE*         MOCLDY    66  66 100 CALM      29.86F
FORT PICKETT*  CLOUDY    67  63  87 W5        29.87F
CHASE CITY*    CLOUDY    65  64  94 CALM      29.88S
CLARKSVILLE*   CLOUDY    64  64 100 SW3       29.89S
SOUTH HILL*    CLOUDY    65  65  99 S5        29.94F
LAWRENCEVILLE* CLOUDY    67  64  92 SW5       29.88F
EMPORIA*       CLOUDY    70  63  78 W3        29.90F
$$

VAZ088>098-220700-
SOUTHEAST VIRGINIA

CITY           SKY/WX    TMP DP  RH WIND       PRES   REMARKS
NORFOLK        CLOUDY    75  63  66 SW10      29.85F
VIRGINIA BEACH CLOUDY    72  63  73 W5        29.84F
NORFOLK NAVAL  CLOUDY    75  63  66 SW13      29.86F
WEST POINT*    MOCLDY    66  65  97 SE6       29.84S
SALUDA*        CLOUDY    65  65 100 S3        29.83S
NEWPORT NEWS   PTCLDY    70  62  76 SW6       29.84F
LANGLEY AFB    CLOUDY    69  65  89 SE7       29.84F
FORT EUSTIS    NOT AVBL
WILLIAMSBURG*  PTCLDY    73  64  73 CALM      29.85F
HR EXEC AP*    MOCLDY    72  63  73 SW14G20   29.84F
FRANKLIN*      RAIN      68  65  88 SW8       29.89S
US460-WAKEFLD  LGT RAIN  71  65  81 SW13G21   29.87R
$$

VAZ020-022-025-037-045-220700-
WEST CENTRAL AND SOUTHWEST VIRGINIA

CITY           SKY/WX    TMP DP  RH WIND       PRES   REMARKS
STAUNTON*      RAIN      62  60  93 CALM      29.90F
WAYNESBORO*    CLOUDY    64  63  97 CALM      29.89F
HOT SPRINGS VA CLOUDY    55  55 100 CALM      29.98S FOG
LYNCHBURG      LGT RAIN  65  62  90 SW6       29.89F
DANVILLE       LGT RAIN  64  64 100 SW5       29.90S
SOUTH BOSTON*  CLOUDY    65  64  94 SW3       29.90R
MARTINSVILLE   CLOUDY    62  61  96 CALM      29.92F FOG
ROANOKE        LGT RAIN  66  61  84 W9        29.91F
BLACKSBURG     LGT RAIN  61  60  95 CALM      29.97F
DUBLIN*        LGT RAIN  62  58  87 W3        29.95F
MARION*        HVY RAIN  60  59  96 SW5       30.00S
HILLSVILLE*    LGT RAIN  59  59 100 CALM      29.96S
RICHLANDS*     FOG       59  59 100 CALM      29.96F VSB 1/4
WISE*          CLOUDY    61  61 100 S6        29.96F
ABINGDON*      RAIN      62  62 100 S3        29.96F
$$

MDZ021>025-VAZ099-100-220700-
SOUTHERN MARYLAND AND THE DELMARVA PENINSULA

CITY           SKY/WX    TMP DP  RH WIND       PRES   REMARKS
PATUXENT RIVER CLOUDY    64  64 100 E5        29.84F
BAY BRIDGE APT CLOUDY    57  54  88 SE8       29.86F FOG
LEONARDTOWN    CLOUDY    63  61  94 N6        29.86S
DOVER          CLOUDY    55  55 100 SE7       29.87F
GEORGETOWN     CLOUDY    53  51  93 MISG      29.88S
EASTON         RAIN      56  54  92 E7        29.91F
CAMBRIDGE        N/A     57  55  94 NE7       29.86F
SALISBURY      CLOUDY    55  54  96 NE9       29.85F
OCEAN CITY     CLOUDY    52  51  97 NE9       29.86F FOG
WALLOPS ISLAND MOCLDY    59  59 100 NE15      29.84F
ACCOMACK*      CLOUDY    61  60  96 SE6       29.83F
$$

NCZ012>017-030>032-220700-
NORTH CENTRAL AND EASTERN NORTH CAROLINA

CITY           SKY/WX    TMP DP  RH WIND       PRES   REMARKS
ROANOKE RAPIDS LGT RAIN  68  64  88 W7        29.89F
RALEIGH        CLOUDY    67  66  97 SE3       29.90F
ELIZABETH CITY MOCLDY    74  68  81 W12       29.88R
AHOSKIE*         N/A     67  66  99 CALM      29.89F FOG
EDENTON*       CLOUDY    74  67  76 CALM      29.89S
CURRITUCK*     MOCLDY    75  64  68 SW9       29.87S
KILL DEVIL HLS PTCLDY    73  62  70 SW10G17   29.87F
MANTEO         CLOUDY    72  63  74 SW14      29.89F
CAPE HATTERAS  CLEAR     70  62  76 SW14      29.92F HAZE
TARBORO*       NOT AVBL
GOLDSBORO      MOCLDY    71  65  79 SW10      29.89F
WASHINGTON     PTCLDY    70  61  71 SW6       29.90F
GREENVILLE     MOCLDY    72  63  73 SW8       29.92S
NEW BERN       CLEAR     67  59  75 SW10      29.93F
WILMINGTON     CLEAR     70  65  84 SW12G20   29.94F
$$

VAZ048-220700-
ELSEWHERE

CITY           SKY/WX    TMP DP  RH WIND       PRES   REMARKS
HARRISBURG PA  CLOUDY    58  56  93 N3        29.89F FOG
BALTIMORE      CLOUDY    59  57  93 NE8       29.87F
ANNAPOLIS      CLOUDY    60  56  86 E6        29.87S
ANDREWS AFB    CLOUDY    61  59  95 E7        29.85F
PHILADELPHIA   CLOUDY    56  53  90 NE7       29.91S FOG
HENDERSON NC   CLOUDY    64  61  92 CALM      29.89F
GREENSBORO     CLOUDY    65  64  97 W5        29.90F
ROCKY MOUNT    CLOUDY    70  65  84 SW3       29.90S
$$

VAZ100-220700-
MARINE

STATION/POSITION TIME  TEMP    WIND        PRES    WAVE   SWELL
                       AIR SEA DIR/SP/G            HT/PER HT/PER
                 (UTC) (F)     (DEG/KT/KT) (MB)    (FT/S) (FT/S)
CAPE MAY NJ      0548   53 55   50/  5/  9 1011.6F
LEWES DE         0548   53 52   70/ 14/ 17 1011.5F
15NM E FENWICK I 0450   51 52   20/ 14/ 16 1012.3    4/10   3/10
OCEAN-CITY-INLET 0548   53 58   50/  6/ 12 1011.4F
WACHAPREAGUE VA  0542   61 72  170/  5/  7 1009.8F
THOMAS POINT MD  0600   58 59   90/  9/ 10   N/A
GOOSES REEF MD   0600   60 59   40/ 12/ 14 1011.6    1/ 2
COVE POINT MD    0542   60      60/ 12/ 14 1011.1F
SOLOMONS ISLAND  0542   64 63  110/  4/  5   N/A
BISHOPS HEAD MD  0548   60 69  360/  9/ 18 1011.4R
PINEY POINT MD   0548           90/  5/  6   N/A
POTOMAC MD       0600   65 62   40/  8/ 12 1009.3    1/ 3
CAMBRIDGE MD     0548   57 65   30/  7/ 10 1010.7R
LEWISETTA VA     0542   66 67  350/  2/  3 1009.7F
RAPPAHANNOCK LGT 0548          130/ 10/ 11 1010.6F
STINGRAY PT      0550   65     190/  8/ 10 1010.0F
YORK RVR RNG VA  0542   68     180/ 10/ 12 1009.8F
YORKTOWN VA      0542   71 66  190/  6/  8 1010.0F
JAMESTOWN VA     0600   72 70  210/  6/  8   N/A
DOMINION TERM VA 0542   74     240/ 12/ 14 1010.6F
KIPTOPEKE VA     0548      62  160/  7/  8   N/A
CHES BAY BRIDGE  0542   73 63  180/  6/  8 1010.6F
CAPE HENRY VA    0542   70     180/  5/  7   N/A
WILLOUBY STN VA  0542   74     230/ 10/ 12 1011.5F
S CRANEY ISL VA  0542   74     230/  6/  9 1010.6F
CAPE HENRY BUOY  0542      63                N/A     2/11   2/11
1ST LANDING BUOY 0600   67 63              1010.7    1/ 4
CAPE CHARLES BUO 0551      63                N/A     2/11   2/11
64NM E OF VA BCH 0550   61 57  250/  8/ 16 1011.8F   4/ 6   3/ 6
DUCK PIER NC     0542   73 57  220/ 14/ 18 1011.0F
44100 DUCK FRF   0535      60                N/A     3/11   2/11
44056 DUCK FRF   0530      59                N/A     3/11   2/11
OREGON INLET NC  0542   72 74  220/ 15/ 17 1012.1F
HATTERAS NC      0542   69 71  230/ 11/ 16 1013.1F
DIAMOND SHLS NC  0550   75 75  240/ 23/ 27 1012.9F   6/ 5   2/11
CAPE LOOKOUT NC  0600   70     230/ 10/ 14 1013.7F
$$




USA.gov is the U.S. government's official web portal to all federal, state and local government web resources and services.